Regional Weather Roundup
Issued by NWS

Home | Current Version | Previous Version | Text Only | Print | Product List | Glossary Off
Versions: 1 2 3 4 5 6 7 8 9 10 11 12 13 14 15 16 17 18 19 20 21 22 23 24 25 26 27 28 29 30 31 32 33 34 35 36 37 38 39 40 41 42 43 44 45 46 47 48 49 50

000
ASUS43 KDTX 230910
RWRMI
MICHIGAN HOURLY REGIONAL WEATHER ROUNDUP
NATIONAL WEATHER SERVICE DETROIT/PONTIAC MI
500 AM EDT MON OCT 23 2017

NOTE: "FAIR" INDICATES FEW OR NO CLOUDS BELOW 12,000 FEET WITH NO
SIGNIFICANT WEATHER AND/OR OBSTRUCTION TO VISIBILITY.

MIZ047>049-052>055-059>063-066>070-074>076-081>083-231000-
SOUTHEAST LOWER MICHIGAN

CITY           SKY/WX    TMP DP  RH WIND       PRES   REMARKS
ADRIAN         CLOUDY    61  49  64 S7        29.95F
ALMA           LGT RAIN  56  55  95 CALM      29.93F
ANN ARBOR      CLOUDY    57  51  80 CALM      29.94F
BAD AXE        CLOUDY    63  49  59 S9        29.95S
CARO           CLOUDY    65  48  52 S7        29.93F
DETROIT CITY   PTCLDY    63  52  67 S6        29.96F
DETROIT        CLOUDY    62  53  72 S7        29.96F
FLINT          CLOUDY    66  48  52 S5        29.93F
GROSSE ILE     CLOUDY    61  56  82 S6        29.95F
HILLSDALE      CLOUDY    63  48  59 SE7       29.93F
HOWELL         CLOUDY    64  49  58 S9        29.94F

CITY           SKY/WX    TMP DP  RH WIND       PRES   REMARKS
JACKSON        CLOUDY    64  49  57 SE7       29.92F
LAMBERTVILLE   CLOUDY    65  49  56 S5        29.95S
LANSING        CLOUDY    65  51  60 SE3       29.92F
LAPEER         MOCLDY    63  49  59 S6        29.95F
MASON          CLOUDY    64  51  62 SE6       29.93S
MONROE         CLOUDY    63  51  67 S5        29.94F
MT. CLEMENS    CLOUDY    58  58 100 SE5       29.95F
PONTIAC        MOCLDY    62  51  67 S7        29.94F
PORT HOPE        N/A     66  49  54 S6        29.92F
PORT HURON     CLOUDY    63  52  67 S7        29.98F
TRI CITIES     CLOUDY    61  58  90 N7        29.93F
MIDLAND        CLOUDY    57  54  89 CALM      29.92F
TROY           PTCLDY    65  50  59 S5        29.97F
SAGINAW HB     CLOUDY    64  50  59 S7        29.92F
$$
MIZ043>046-050>051-056>058-064>065-071>073-077>080-231000-
SOUTHWEST LOWER MICHIGAN

CITY           SKY/WX    TMP DP  RH WIND       PRES   REMARKS
BATTLE CREEK   CLOUDY    62  60  93 CALM      29.91F
BENTON HARBOR  RAIN      56  54  93 VRB5      29.90F FOG
BIG RAPIDS     LGT RAIN  51  49  94 N3        29.93F
COLDWATER      CLOUDY    63  49  61 S3        29.91F
FREMONT        LGT RAIN  51  51 100 N5        29.93F
HOLLAND        RAIN      54  52  93 N7        29.92F FOG
GRAND RAPIDS   RAIN      56  55  97 CALM      29.92F FOG
IONIA          LGT RAIN  57  57  98 CALM      29.92S
KALAMAZOO      CLOUDY    60  56  86 NE3       29.91F
LUDINGTON      RAIN      50  49  97 CALM      29.94F
MARSHALL       CLOUDY    63  51  66 S3        29.91F
MOUNT PLEASANT LGT RAIN  56  55  94 CALM      29.92F
MUSKEGON       RAIN      53  51  93 N8        29.94F
SOUTH HAVEN    RAIN      56  54  95 CALM      29.92F
$$
MIZ016>042-231000-
NORTHERN LOWER MICHIGAN

CITY           SKY/WX    TMP DP  RH WIND       PRES   REMARKS
ALPENA         LGT RAIN  53  53 100 NW5       29.97S
BEAVER ISLAND  CLOUDY    51  50  97 CALM      29.96F
BELLAIRE       LGT RAIN  50  49  95 CALM      29.97S
CADILLAC       LGT RAIN  52  49  90 N3        29.93F
CHARLEVOIX     RAIN      51  51 100 CALM      29.98F
FRANKFORT      RAIN      52  52 100 CALM      29.95S
GAYLORD        RAIN      48  46  93 N5        29.95F FOG
GRAYLING       RAIN      51  49  92 NW3       29.96F
HARBOR SPRINGS RAIN      49  48  95 E3        29.96F
HOUGHTON LAKE  RAIN      52  50  93 N7        29.94F
MANISTEE       RAIN      51  50  96 CALM      29.95F
OSCODA         CLOUDY    56  54  90 N6        29.93F
PELLSTON       LGT RAIN  50  49  96 CALM      29.97F
ROGERS CITY    HVY RAIN  50  49  96 NW5       29.98F
TRAVERSE CITY  LGT RAIN  53  50  89 N3        29.94F
$$
MIZ007>008-015-231000-
EASTERN UPPER MICHIGAN

CITY           SKY/WX    TMP DP  RH WIND       PRES   REMARKS
KINROSS        LGT RAIN  48  48 100 CALM      29.96F
MACKINAC ISLAN MIX PCPN  50  50 100 NE5       29.96F
NEWBERRY       CLOUDY    45  44  97 CALM      29.95S
S. S. MARIE    LGT RAIN  50  49  96 CALM      29.95F
MUNISING         N/A     42  42 100 S5        29.93S
$$
MIZ004>006-011>014-085-231000-
CENTRAL UPPER MICHIGAN

CITY           SKY/WX    TMP DP  RH WIND       PRES   REMARKS
MANISTIQUE     CLOUDY    43  38  81 CALM      29.95S HAZE
ESCANABA       CLOUDY    44  43  96 CALM      29.95F
MENOMINEE      CLOUDY    45  44  97 CALM      29.96F FOG
SAWYER-GWINN   FOG       40  40  99 S5        29.93S VSB 1/2
$$
MIZ001>003-009>011-084-231000-
WESTERN UPPER MICHIGAN

CITY           SKY/WX    TMP DP  RH WIND       PRES   REMARKS
IRON MOUNTAIN  FOG       34  32  92 CALM      29.91F VSB 1/2
HOUGHTON       CLOUDY    44  38  79 SW3       29.86F
COPPER HARBOR    N/A     47  38  71 SW12      29.85F
IRONWOOD       CLOUDY    47  39  74 S8        29.87F
$$

ABBREVIATIONS USED IN REMARKS
   TC - TEMPERATURE IN CELSIUS
  WCI - WIND CHILL INDEX
   HX - HEAT INDEX
  VSB - VISIBILITY





USA.gov is the U.S. government's official web portal to all federal, state and local government web resources and services.